Regional Weather Roundup
Issued by NWS

Home | Current Version | Previous Version | Graphics & Text | Print | Product List | Glossary On
Versions: 1 2 3 4 5 6 7 8 9 10 11 12 13 14 15 16 17 18 19 20 21 22 23 24 25 26 27 28 29 30 31 32 33 34 35 36 37 38 39 40 41 42 43 44 45 46 47 48 49 50
000
ASUS43 KLSX 052107
RWRMO

WEATHER SUMMARY FOR MISSOURI
NATIONAL WEATHER SERVICE SPRINGFIELD MO
300 PM CST FRI FEB 05 2016

NOTE: "FAIR" INDICATES FEW OR NO CLOUDS BELOW 12,000 FEET WITH NO
       SIGNIFICANT WEATHER AND/OR OBSTRUCTIONS TO VISIBILITY.
       CURRENT SKY AND/OR WEATHER CONDITIONS ARE NOT AVAILABLE FOR
       CHILLICOTHE AND FARMINGTON.

MOZ001>031-035>038-043-044-053-054-052200-
...NORTHERN AND WESTERN MISSOURI...

CITY           SKY/WX    TMP DP  RH WIND       PRES   REMARKS
KANSAS CTY INT PTSUNNY   41  22  46 S7        30.31S
KANSAS C DTWN  CLOUDY    43  20  39 CALM      30.32F
LEE`S SUMMIT   PTSUNNY   41  21  44 S3        30.32F
ST JOSEPH      CLOUDY    38  22  52 SW8       30.31F
CHILLICOTHE      N/A     37  23  56 VRB3      30.35F
KIRKSVILLE     CLOUDY    34  15  46 S5        30.35S WCI  30

$$
MOZ066>068-077>081-088>096-101>105-052200-
...SOUTHWEST MISSOURI...

CITY           SKY/WX    TMP DP  RH WIND       PRES   REMARKS
SPRINGFIELD    SUNNY     52  17  25 SW9G18    30.30F
JOPLIN         SUNNY     52  21  29 SW14      30.32F

$$
MOZ032>034-039>042-045>050-055>058-069>072-052200-
...CENTRAL MISSOURI...

CITY           SKY/WX    TMP DP  RH WIND       PRES   REMARKS
COLUMBIA       SUNNY     41  15  35 VRB5      30.33F
JEFFERSON CITY SUNNY     41  18  39 E5        30.35F
ROLLA            N/A    N/A N/A N/A MISG      30.30F
SEDALIA        SUNNY     44  19  36 S7        30.34S
WHITEMAN AFB   MOSUNNY   42  20  41 VRB1      30.32S
WARRENSBURG    SUNNY     41  21  45 CALM      30.33S
OSAGE BEACH    SUNNY     46  19  34 S5        30.32F

$$
MOZ051-052-059>065-052200-
...EAST CENTRAL MISSOURI...

CITY           SKY/WX    TMP DP  RH WIND       PRES   REMARKS
ST LOUIS INTL  PTSUNNY   39  13  34 N5        30.38F
SPIRIT OF STL  MOSUNNY   41  18  39 CALM      30.37F
ST CHARLES     SUNNY     38  19  46 NW3       30.38F

$$
MOZ072>076-082>087-097>100-106>115-052200-
...SOUTH CENTRAL AND SOUTHEAST MISSOURI...

CITY           SKY/WX    TMP DP  RH WIND       PRES   REMARKS
CAPE GIRARDEAU CLOUDY    49  24  37 S8        30.36F
FARMINGTON     SUNNY     47  17  30 W8        30.34F
POPLAR BLUFF   CLOUDY    50  22  33 S13       30.35F
WEST PLAINS    SUNNY     51  16  24 W9        30.33F

$$


USA.gov is the U.S. government's official web portal to all federal, state and local government web resources and services.